Time,TemperatureF,DewpointF,PressureIn,WindDirection,WindDirectionDegrees,WindSpeedMPH,WindSpeedGustMPH,Humidity,HourlyPrecipIn,Conditions,Clouds,dailyrainin,SoftwareType,DateUTC
2013-02-04 00:01:00,49.6,45.6,30.11,ESE,112,0.0,0.0,86,0.00,CLR,,0.00,WeatherDisplay:10.37,2013-02-04 05:01:00,
2013-02-04 00:02:00,49.6,45.6,30.10,East,90,0.0,0.0,86,0.00,CLR,,0.00,WeatherDisplay:10.37,2013-02-04 05:02:00,
2013-02-04 00:03:00,49.6,45.9,30.10,ESE,112,0.0,0.0,87,0.00,CLR,,0.00,WeatherDisplay:10.37,2013-02-04 05:03:00,
2013-02-04 00:04:00,49.6,45.9,30.10,ESE,112,0.0,0.0,87,0.00,CLR,,0.00,WeatherDisplay:10.37,2013-02-04 05:04:00,
2013-02-04 00:09:00,49.6,45.9,30.10,SSW,202,0.0,0.0,87,0.00,CLR,,0.00,WeatherDisplay:10.37,2013-02-04 05:09:00,
2013-02-04 00:14:00,49.5,45.8,30.09,SW,225,0.0,0.0,87,0.00,CLR,,0.00,WeatherDisplay:10.37,2013-02-04 05:14:00,
2013-02-04 00:19:00,49.1,46.0,30.09,South,180,0.0,0.0,89,0.00,CLR,,0.00,WeatherDisplay:10.37,2013-02-04 05:19:00,
2013-02-04 00:24:00,49.1,46.0,30.09,SSW,202,0.0,0.0,89,0.00,CLR,,0.00,WeatherDisplay:10.37,2013-02-04 05:24:00,
2013-02-04 00:29:00,48.7,45.6,30.09,South,180,0.0,0.0,89,0.00,CLR,,0.00,WeatherDisplay:10.37,2013-02-04 05:29:00,
2013-02-04 00:34:00,48.4,45.3,30.09,SW,225,0.0,0.0,89,0.00,CLR,,0.00,WeatherDisplay:10.37,2013-02-04 05:34:00,
2013-02-04 00:39:00,48.4,46.2,30.09,West,270,0.0,0.0,92,0.00,CLR,,0.00,WeatherDisplay:10.37,2013-02-04 05:39:00,
2013-02-04 00:44:00,48.4,46.2,30.09,SSW,202,0.0,0.0,92,0.00,CLR,,0.00,WeatherDisplay:10.37,2013-02-04 05:44:00,
2013-02-04 00:49:00,48.2,45.7,30.09,WNW,292,0.0,0.0,91,0.00,CLR,,0.00,WeatherDisplay:10.37,2013-02-04 05:49:00,
2013-02-04 00:54:00,48.4,46.5,30.09,WNW,292,0.0,0.0,93,0.00,CLR,,0.00,WeatherDisplay:10.37,2013-02-04 05:54:00,
2013-02-04 00:59:00,50.9,47.2,30.09,West,270,5.8,5.8,87,0.00,CLR,,0.00,WeatherDisplay:10.37,2013-02-04 05:59:00,
2013-02-04 01:04:00,52.0,47.3,30.09,West,270,4.6,4.6,84,0.00,CLR,,0.00,WeatherDisplay:10.37,2013-02-04 06:04:00,
2013-02-04 01:09:00,52.5,47.5,30.09,West,270,3.7,3.7,83,0.00,CLR,,0.00,WeatherDisplay:10.37,2013-02-04 06:09:00,
2013-02-04 01:14:00,51.6,46.9,30.10,SW,225,0.0,0.0,84,0.00,CLR,,0.00,WeatherDisplay:10.37,2013-02-04 06:14:00,
2013-02-04 01:19:00,51.3,46.9,30.10,West,270,1.7,1.7,85,0.00,CLR,,0.00,WeatherDisplay:10.37,2013-02-04 06:19:00,
2013-02-04 01:24:00,51.6,47.2,30.10,SSW,202,2.7,2.7,85,0.00,CLR,,0.00,WeatherDisplay:10.37,2013-02-04 06:24:00,
2013-02-04 01:29:00,51.6,47.2,30.09,WSW,248,2.7,2.7,85,0.00,CLR,,0.00,WeatherDisplay:10.37,2013-02-04 06:29:00,
2013-02-04 01:34:00,51.8,47.4,30.09,West,270,2.7,2.7,85,0.00,CLR,,0.00,WeatherDisplay:10.37,2013-02-04 06:34:00,
2013-02-04 01:39:00,51.3,47.3,30.09,SW,225,1.7,1.7,86,0.00,CLR,,0.00,WeatherDisplay:10.37,2013-02-04 06:39:00,
2013-02-04 01:44:00,51.4,47.7,30.09,WSW,248,2.7,2.7,87,0.00,CLR,,0.00,WeatherDisplay:10.37,2013-02-04 06:44:00,
2013-02-04 01:49:00,51.8,48.1,30.09,West,270,3.5,3.5,87,0.00,CLR,,0.00,WeatherDisplay:10.37,2013-02-04 06:49:00,
2013-02-04 01:54:00,52.2,48.4,30.09,West,270,2.7,2.7,87,0.00,CLR,,0.00,WeatherDisplay:10.37,2013-02-04 06:54:00,
2013-02-04 01:59:00,52.7,48.9,30.09,West,270,4.6,4.6,87,0.00,CLR,,0.00,WeatherDisplay:10.37,2013-02-04 06:59:00,
2013-02-04 02:04:00,52.7,48.9,30.09,West,270,2.7,2.7,87,0.00,CLR,,0.00,WeatherDisplay:10.37,2013-02-04 07:04:00,
2013-02-04 02:09:00,52.3,48.5,30.09,West,270,2.3,2.3,87,0.00,CLR,,0.00,WeatherDisplay:10.37,2013-02-04 07:09:00,
2013-02-04 02:14:00,52.0,48.3,30.09,West,270,1.1,0.0,87,0.00,CLR,,0.00,WeatherDisplay:10.37,2013-02-04 07:14:00,
2013-02-04 02:19:00,52.0,48.3,30.09,West,270,0.0,0.0,87,0.00,CLR,,0.00,WeatherDisplay:10.37,2013-02-04 07:19:00,
2013-02-04 02:24:00,52.0,48.3,30.09,West,270,0.0,0.0,87,0.00,CLR,,0.00,WeatherDisplay:10.37,2013-02-04 07:24:00,
2013-02-04 02:29:00,52.0,48.3,30.09,West,270,0.0,0.0,87,0.00,CLR,,0.00,WeatherDisplay:10.37,2013-02-04 07:29:00,
2013-02-04 02:34:00,52.0,48.3,30.09,West,270,0.0,0.0,87,0.00,CLR,,0.00,WeatherDisplay:10.37,2013-02-04 07:34:00,
2013-02-04 02:39:00,52.0,48.3,30.09,West,270,0.0,0.0,87,0.00,CLR,,0.00,WeatherDisplay:10.37,2013-02-04 07:39:00,
2013-02-04 02:44:00,52.0,48.3,30.09,West,270,0.0,0.0,87,0.00,CLR,,0.00,WeatherDisplay:10.37,2013-02-04 07:44:00,
2013-02-04 02:49:00,52.0,48.3,30.09,West,270,0.0,0.0,87,0.00,CLR,,0.00,WeatherDisplay:10.37,2013-02-04 07:49:00,
2013-02-04 02:54:00,52.0,48.3,30.09,West,270,0.0,0.0,87,0.00,CLR,,0.00,WeatherDisplay:10.37,2013-02-04 07:54:00,
2013-02-04 02:59:00,52.0,48.3,30.09,West,270,0.0,0.0,87,0.00,CLR,,0.00,WeatherDisplay:10.37,2013-02-04 07:59:00,
2013-02-04 03:04:00,52.0,48.3,30.09,West,270,0.0,0.0,87,0.00,CLR,,0.00,WeatherDisplay:10.37,2013-02-04 08:04:00,
2013-02-04 03:09:00,52.0,48.3,30.09,West,270,0.0,0.0,87,0.00,CLR,,0.00,WeatherDisplay:10.37,2013-02-04 08:09:00,
2013-02-04 03:14:00,52.0,48.3,30.09,West,270,0.0,0.0,87,0.00,CLR,,0.00,WeatherDisplay:10.37,2013-02-04 08:14:00,
2013-02-04 03:19:00,52.0,48.3,30.09,West,270,0.0,0.0,87,0.00,CLR,,0.00,WeatherDisplay:10.37,2013-02-04 08:19:00,
2013-02-04 03:24:00,52.0,48.3,30.09,West,270,0.0,0.0,87,0.00,CLR,,0.00,WeatherDisplay:10.37,2013-02-04 08:24:00,
2013-02-04 03:29:00,52.0,48.3,30.09,West,270,0.0,0.0,87,0.00,CLR,,0.00,WeatherDisplay:10.37,2013-02-04 08:29:00,
2013-02-04 03:34:00,52.0,48.3,30.09,West,270,0.0,0.0,87,0.00,CLR,,0.00,WeatherDisplay:10.37,2013-02-04 08:34:00,
2013-02-04 03:39:00,52.0,48.3,30.09,West,270,0.0,0.0,87,0.00,CLR,,0.00,WeatherDisplay:10.37,2013-02-04 08:39:00,
2013-02-04 03:44:00,52.0,48.3,30.09,West,270,0.0,0.0,87,0.00,CLR,,0.00,WeatherDisplay:10.37,2013-02-04 08:44:00,
2013-02-04 03:49:00,52.0,48.3,30.09,West,270,0.0,0.0,87,0.00,CLR,,0.00,WeatherDisplay:10.37,2013-02-04 08:49:00,
2013-02-04 03:54:00,52.0,48.3,30.09,West,270,0.0,0.0,87,0.00,CLR,,0.00,WeatherDisplay:10.37,2013-02-04 08:54:00,
2013-02-04 03:59:00,52.0,48.3,30.09,West,270,0.0,0.0,87,0.00,CLR,,0.00,WeatherDisplay:10.37,2013-02-04 08:59:00,
2013-02-04 04:04:00,52.0,48.3,30.09,West,270,0.0,0.0,87,0.00,CLR,,0.00,WeatherDisplay:10.37,2013-02-04 09:04:00,
2013-02-04 04:09:00,52.0,48.3,30.09,West,270,0.0,0.0,87,0.00,CLR,,0.00,WeatherDisplay:10.37,2013-02-04 09:09:00,
2013-02-04 04:14:00,52.0,48.3,30.09,West,270,0.0,0.0,87,0.00,CLR,,0.00,WeatherDisplay:10.37,2013-02-04 09:14:00,
2013-02-04 04:19:00,52.0,48.3,30.09,West,270,0.0,0.0,87,0.00,CLR,,0.00,WeatherDisplay:10.37,2013-02-04 09:19:00,
2013-02-04 04:24:00,52.0,48.3,30.09,West,270,0.0,0.0,87,0.00,CLR,,0.00,WeatherDisplay:10.37,2013-02-04 09:24:00,
2013-02-04 04:29:00,52.0,48.3,30.09,West,270,0.0,0.0,87,0.00,CLR,,0.00,WeatherDisplay:10.37,2013-02-04 09:29:00,
2013-02-04 04:34:00,52.0,48.3,30.09,West,270,0.0,0.0,87,0.00,CLR,,0.00,WeatherDisplay:10.37,2013-02-04 09:34:00,
2013-02-04 04:39:00,52.0,48.3,30.09,West,270,0.0,0.0,87,0.00,CLR,,0.00,WeatherDisplay:10.37,2013-02-04 09:39:00,
2013-02-04 04:44:00,52.0,48.3,30.09,West,270,0.0,0.0,87,0.00,CLR,,0.00,WeatherDisplay:10.37,2013-02-04 09:44:00,
2013-02-04 04:49:00,52.0,48.3,30.09,West,270,0.0,0.0,87,0.00,CLR,,0.00,WeatherDisplay:10.37,2013-02-04 09:49:00,
2013-02-04 04:54:00,52.0,48.3,30.09,West,270,0.0,0.0,87,0.00,CLR,,0.00,WeatherDisplay:10.37,2013-02-04 09:54:00,
2013-02-04 04:59:00,52.0,48.3,30.09,West,270,0.0,0.0,87,0.00,CLR,,0.00,WeatherDisplay:10.37,2013-02-04 09:59:00,
2013-02-04 05:04:00,52.0,48.3,30.09,West,270,0.0,0.0,87,0.00,CLR,,0.00,WeatherDisplay:10.37,2013-02-04 10:04:00,
2013-02-04 05:09:00,52.0,48.3,30.09,West,270,0.0,0.0,87,0.00,CLR,,0.00,WeatherDisplay:10.37,2013-02-04 10:09:00,
2013-02-04 05:14:00,52.0,48.3,30.09,West,270,0.0,0.0,87,0.00,CLR,,0.00,WeatherDisplay:10.37,2013-02-04 10:14:00,
2013-02-04 05:19:00,52.0,48.3,30.09,West,270,0.0,0.0,87,0.00,CLR,,0.00,WeatherDisplay:10.37,2013-02-04 10:19:00,
2013-02-04 05:24:00,52.0,48.3,30.09,West,270,0.0,0.0,87,0.00,CLR,,0.00,WeatherDisplay:10.37,2013-02-04 10:24:00,
2013-02-04 05:29:00,52.0,48.3,30.09,West,270,0.0,0.0,87,0.00,CLR,,0.00,WeatherDisplay:10.37,2013-02-04 10:29:00,
2013-02-04 05:34:00,52.0,48.3,30.09,West,270,0.0,0.0,87,0.00,CLR,,0.00,WeatherDisplay:10.37,2013-02-04 10:34:00,
2013-02-04 05:39:00,52.0,48.3,30.09,West,270,0.0,0.0,87,0.00,CLR,,0.00,WeatherDisplay:10.37,2013-02-04 10:39:00,
2013-02-04 05:44:00,52.0,48.3,30.09,West,270,0.0,0.0,87,0.00,CLR,,0.00,WeatherDisplay:10.37,2013-02-04 10:44:00,
2013-02-04 05:49:00,52.0,48.3,30.09,West,270,0.0,0.0,87,0.00,CLR,,0.00,WeatherDisplay:10.37,2013-02-04 10:49:00,
2013-02-04 05:54:00,52.0,48.3,30.09,West,270,0.0,0.0,87,0.00,CLR,,0.00,WeatherDisplay:10.37,2013-02-04 10:54:00,
2013-02-04 05:59:00,52.0,48.3,30.09,West,270,0.0,0.0,87,0.00,CLR,,0.00,WeatherDisplay:10.37,2013-02-04 10:59:00,
2013-02-04 06:04:00,52.0,48.3,30.09,West,270,0.0,0.0,87,0.00,CLR,,0.00,WeatherDisplay:10.37,2013-02-04 11:04:00,
2013-02-04 06:09:00,52.0,48.3,30.09,West,270,0.0,0.0,87,0.00,CLR,,0.00,WeatherDisplay:10.37,2013-02-04 11:09:00,
2013-02-04 06:14:00,52.0,48.3,30.09,West,270,0.0,0.0,87,0.00,CLR,,0.00,WeatherDisplay:10.37,2013-02-04 11:14:00,
2013-02-04 06:19:00,52.0,48.3,30.09,West,270,0.0,0.0,87,0.00,CLR,,0.00,WeatherDisplay:10.37,2013-02-04 11:19:00,
2013-02-04 06:24:00,52.0,48.3,30.09,West,270,0.0,0.0,87,0.00,CLR,,0.00,WeatherDisplay:10.37,2013-02-04 11:24:00,
2013-02-04 06:29:00,52.0,48.3,30.09,West,270,0.0,0.0,87,0.00,CLR,,0.00,WeatherDisplay:10.37,2013-02-04 11:29:00,
2013-02-04 06:34:00,52.0,48.3,30.09,West,270,0.0,0.0,87,0.00,CLR,,0.00,WeatherDisplay:10.37,2013-02-04 11:34:00,
2013-02-04 06:39:00,52.0,48.3,30.09,West,270,0.0,0.0,87,0.00,CLR,,0.00,WeatherDisplay:10.37,2013-02-04 11:39:00,
2013-02-04 06:44:00,52.0,48.3,30.09,West,270,0.0,0.0,87,0.00,CLR,,0.00,WeatherDisplay:10.37,2013-02-04 11:44:00,
2013-02-04 06:49:00,52.0,48.3,30.09,West,270,0.0,0.0,87,0.00,CLR,,0.00,WeatherDisplay:10.37,2013-02-04 11:49:00,
2013-02-04 06:54:00,52.0,48.3,30.09,West,270,0.0,0.0,87,0.00,CLR,,0.00,WeatherDisplay:10.37,2013-02-04 11:54:00,
2013-02-04 06:59:00,52.0,48.3,30.09,West,270,0.0,0.0,87,0.00,CLR,,0.00,WeatherDisplay:10.37,2013-02-04 11:59:00,
2013-02-04 07:04:00,52.0,48.3,30.09,West,270,0.0,0.0,87,0.00,CLR,,0.00,WeatherDisplay:10.37,2013-02-04 12:04:00,
2013-02-04 07:09:00,52.0,48.3,30.09,West,270,0.0,0.0,87,0.00,CLR,,0.00,WeatherDisplay:10.37,2013-02-04 12:09:00,
2013-02-04 07:14:00,52.0,48.3,30.09,West,270,0.0,0.0,87,0.00,CLR,,0.00,WeatherDisplay:10.37,2013-02-04 12:14:00,
2013-02-04 07:19:00,52.0,48.3,30.09,West,270,0.0,0.0,87,0.00,CLR,,0.00,WeatherDisplay:10.37,2013-02-04 12:19:00,
2013-02-04 07:24:00,52.0,48.3,30.09,West,270,0.0,0.0,87,0.00,CLR,,0.00,WeatherDisplay:10.37,2013-02-04 12:24:00,
2013-02-04 07:29:00,52.0,48.3,30.09,West,270,0.0,0.0,87,0.00,CLR,,0.00,WeatherDisplay:10.37,2013-02-04 12:29:00,
2013-02-04 07:34:00,52.0,48.3,30.09,West,270,0.0,0.0,87,0.00,CLR,,0.00,WeatherDisplay:10.37,2013-02-04 12:34:00,
2013-02-04 07:39:00,52.0,48.3,30.09,West,270,0.0,0.0,87,0.00,CLR,,0.00,WeatherDisplay:10.37,2013-02-04 12:39:00,
2013-02-04 07:44:00,52.0,48.3,30.09,West,270,0.0,0.0,87,0.00,CLR,,0.00,WeatherDisplay:10.37,2013-02-04 12:44:00,
2013-02-04 07:49:00,52.0,48.3,30.09,West,270,0.0,0.0,87,0.00,CLR,,0.00,WeatherDisplay:10.37,2013-02-04 12:49:00,
2013-02-04 07:54:00,52.0,48.3,30.09,West,270,0.0,0.0,87,0.00,CLR,,0.00,WeatherDisplay:10.37,2013-02-04 12:54:00,
2013-02-04 07:59:00,52.0,48.3,30.09,West,270,0.0,0.0,87,0.00,CLR,,0.00,WeatherDisplay:10.37,2013-02-04 12:59:00,
2013-02-04 08:04:00,52.0,48.3,30.09,West,270,0.0,0.0,87,0.00,CLR,,0.00,WeatherDisplay:10.37,2013-02-04 13:04:00,
2013-02-04 08:09:00,52.0,48.3,30.09,West,270,0.0,0.0,87,0.00,CLR,,0.00,WeatherDisplay:10.37,2013-02-04 13:09:00,
2013-02-04 08:14:00,52.0,48.3,30.09,West,270,0.0,0.0,87,0.00,CLR,,0.00,WeatherDisplay:10.37,2013-02-04 13:14:00,
2013-02-04 08:19:00,52.0,48.3,30.09,West,270,0.0,0.0,87,0.00,CLR,,0.00,WeatherDisplay:10.37,2013-02-04 13:19:00,
2013-02-04 08:24:00,52.0,48.3,30.09,West,270,0.0,0.0,87,0.00,CLR,,0.00,WeatherDisplay:10.37,2013-02-04 13:24:00,
2013-02-04 08:29:00,52.0,48.3,30.09,West,270,0.0,0.0,87,0.00,CLR,,0.00,WeatherDisplay:10.37,2013-02-04 13:29:00,
2013-02-04 08:34:00,52.0,48.3,30.09,West,270,0.0,0.0,87,0.00,CLR,,0.00,WeatherDisplay:10.37,2013-02-04 13:34:00,
2013-02-04 08:40:00,52.0,48.3,30.09,West,270,0.0,0.0,87,0.00,CLR,,0.00,WeatherDisplay:10.37,2013-02-04 13:40:00,
2013-02-04 08:45:00,52.0,48.3,30.09,West,270,0.0,0.0,87,0.00,CLR,,0.00,WeatherDisplay:10.37,2013-02-04 13:45:00,
2013-02-04 08:50:00,52.0,48.3,30.09,West,270,0.0,0.0,87,0.00,CLR,,0.00,WeatherDisplay:10.37,2013-02-04 13:50:00,
2013-02-04 08:55:00,52.0,48.3,30.09,West,270,0.0,0.0,87,0.00,CLR,,0.00,WeatherDisplay:10.37,2013-02-04 13:55:00,
2013-02-04 09:00:00,52.0,48.3,30.09,West,270,0.0,0.0,87,0.00,CLR,,0.00,WeatherDisplay:10.37,2013-02-04 14:00:00,
2013-02-04 09:05:00,52.0,48.3,30.09,West,270,0.0,0.0,87,0.00,CLR,,0.00,WeatherDisplay:10.37,2013-02-04 14:05:00,
2013-02-04 09:10:00,52.0,48.3,30.09,West,270,0.0,0.0,87,0.00,CLR,,0.00,WeatherDisplay:10.37,2013-02-04 14:10:00,
2013-02-04 09:15:00,52.0,48.3,30.09,West,270,0.0,0.0,87,0.00,CLR,,0.00,WeatherDisplay:10.37,2013-02-04 14:15:00,
2013-02-04 09:20:00,52.0,48.3,30.09,West,270,0.0,0.0,87,0.00,CLR,,0.00,WeatherDisplay:10.37,2013-02-04 14:20:00,
2013-02-04 09:25:00,52.0,48.3,30.09,West,270,0.0,0.0,87,0.00,CLR,,0.00,WeatherDisplay:10.37,2013-02-04 14:25:00,
2013-02-04 09:30:00,52.0,48.3,30.09,West,270,0.0,0.0,87,0.00,CLR,,0.00,WeatherDisplay:10.37,2013-02-04 14:30:00,
2013-02-04 09:35:00,52.0,48.3,30.09,West,270,0.0,0.0,87,0.00,CLR,,0.00,WeatherDisplay:10.37,2013-02-04 14:35:00,
2013-02-04 09:40:00,52.0,48.3,30.09,West,270,0.0,0.0,87,0.00,CLR,,0.00,WeatherDisplay:10.37,2013-02-04 14:40:00,
2013-02-04 09:45:00,52.0,48.3,30.09,West,270,0.0,0.0,87,0.00,CLR,,0.00,WeatherDisplay:10.37,2013-02-04 14:45:00,
2013-02-04 09:50:00,52.0,48.3,30.09,West,270,0.0,0.0,87,0.00,CLR,,0.00,WeatherDisplay:10.37,2013-02-04 14:50:00,
2013-02-04 09:55:00,52.0,48.3,30.09,West,270,0.0,0.0,87,0.00,CLR,,0.00,WeatherDisplay:10.37,2013-02-04 14:55:00,
2013-02-04 10:00:00,52.0,48.3,30.09,West,270,0.0,0.0,87,0.00,CLR,,0.00,WeatherDisplay:10.37,2013-02-04 15:00:00,
2013-02-04 10:05:00,52.0,48.3,30.09,West,270,0.0,0.0,87,0.00,CLR,,0.00,WeatherDisplay:10.37,2013-02-04 15:05:00,
2013-02-04 10:10:00,52.0,48.3,30.09,West,270,0.0,0.0,87,0.00,CLR,,0.00,WeatherDisplay:10.37,2013-02-04 15:10:00,
2013-02-04 10:15:00,52.0,48.3,30.09,West,270,0.0,0.0,87,0.00,CLR,,0.00,WeatherDisplay:10.37,2013-02-04 15:15:00,
2013-02-04 10:20:00,52.0,48.3,30.09,West,270,0.0,0.0,87,0.00,CLR,,0.00,WeatherDisplay:10.37,2013-02-04 15:20:00,
2013-02-04 10:25:00,52.0,48.3,30.09,West,270,0.0,0.0,87,0.00,CLR,,0.00,WeatherDisplay:10.37,2013-02-04 15:25:00,
2013-02-04 10:30:00,52.0,48.3,30.09,West,270,0.0,0.0,87,0.00,CLR,,0.00,WeatherDisplay:10.37,2013-02-04 15:30:00,
2013-02-04 10:35:00,52.0,48.3,30.09,West,270,0.0,0.0,87,0.00,CLR,,0.00,WeatherDisplay:10.37,2013-02-04 15:35:00,
2013-02-04 10:40:00,52.0,48.3,30.09,West,270,0.0,0.0,87,0.00,CLR,,0.00,WeatherDisplay:10.37,2013-02-04 15:40:00,
2013-02-04 10:45:00,52.0,48.3,30.09,West,270,0.0,0.0,87,0.00,CLR,,0.00,WeatherDisplay:10.37,2013-02-04 15:45:00,
2013-02-04 10:50:00,52.0,48.3,30.09,West,270,0.0,0.0,87,0.00,CLR,,0.00,WeatherDisplay:10.37,2013-02-04 15:50:00,
2013-02-04 10:55:00,52.0,48.3,30.09,West,270,0.0,0.0,87,0.00,CLR,,0.00,WeatherDisplay:10.37,2013-02-04 15:55:00,
2013-02-04 11:00:00,52.0,48.3,30.09,West,270,0.0,0.0,87,0.00,CLR,,0.00,WeatherDisplay:10.37,2013-02-04 16:00:00,
2013-02-04 11:05:00,52.0,48.3,30.09,West,270,0.0,0.0,87,0.00,CLR,,0.00,WeatherDisplay:10.37,2013-02-04 16:05:00,
2013-02-04 11:10:00,52.0,48.3,30.09,West,270,0.0,0.0,87,0.00,CLR,,0.00,WeatherDisplay:10.37,2013-02-04 16:10:00,
2013-02-04 11:15:00,52.0,48.3,30.09,West,270,0.0,0.0,87,0.00,CLR,,0.00,WeatherDisplay:10.37,2013-02-04 16:15:00,
2013-02-04 11:20:00,52.0,48.3,30.09,West,270,0.0,0.0,87,0.00,CLR,,0.00,WeatherDisplay:10.37,2013-02-04 16:20:00,
2013-02-04 11:25:00,52.0,48.3,30.09,West,270,0.0,0.0,87,0.00,CLR,,0.00,WeatherDisplay:10.37,2013-02-04 16:25:00,
2013-02-04 11:30:00,52.0,48.3,30.09,West,270,0.0,0.0,87,0.00,CLR,,0.00,WeatherDisplay:10.37,2013-02-04 16:30:00,
2013-02-04 11:35:00,52.0,48.3,30.09,West,270,0.0,0.0,87,0.00,CLR,,0.00,WeatherDisplay:10.37,2013-02-04 16:35:00,
2013-02-04 11:40:00,52.0,48.3,30.09,West,270,0.0,0.0,87,0.00,CLR,,0.00,WeatherDisplay:10.37,2013-02-04 16:40:00,
2013-02-04 11:45:00,52.0,48.3,30.09,West,270,0.0,0.0,87,0.00,CLR,,0.00,WeatherDisplay:10.37,2013-02-04 16:45:00,
2013-02-04 11:50:00,52.0,48.3,30.09,West,270,0.0,0.0,87,0.00,CLR,,0.00,WeatherDisplay:10.37,2013-02-04 16:50:00,
2013-02-04 11:55:00,52.0,48.3,30.09,West,270,0.0,0.0,87,0.00,CLR,,0.00,WeatherDisplay:10.37,2013-02-04 16:55:00,
2013-02-04 12:00:00,52.0,48.3,30.09,West,270,0.0,0.0,87,0.00,CLR,,0.00,WeatherDisplay:10.37,2013-02-04 17:00:00,
2013-02-04 12:05:00,52.0,48.3,30.09,West,270,0.0,0.0,87,0.00,CLR,,0.00,WeatherDisplay:10.37,2013-02-04 17:05:00,
2013-02-04 12:10:00,52.0,48.3,30.09,West,270,0.0,0.0,87,0.00,CLR,,0.00,WeatherDisplay:10.37,2013-02-04 17:10:00,
2013-02-04 12:15:00,52.0,48.3,30.09,West,270,0.0,0.0,87,0.00,CLR,,0.00,WeatherDisplay:10.37,2013-02-04 17:15:00,
2013-02-04 12:20:00,52.0,48.3,30.09,West,270,0.0,0.0,87,0.00,CLR,,0.00,WeatherDisplay:10.37,2013-02-04 17:20:00,
2013-02-04 12:25:00,52.0,48.3,30.09,West,270,0.0,0.0,87,0.00,CLR,,0.00,WeatherDisplay:10.37,2013-02-04 17:25:00,
2013-02-04 12:30:00,52.0,48.3,30.09,West,270,0.0,0.0,87,0.00,CLR,,0.00,WeatherDisplay:10.37,2013-02-04 17:30:00,
2013-02-04 12:35:00,52.0,48.3,30.09,West,270,0.0,0.0,87,0.00,CLR,,0.00,WeatherDisplay:10.37,2013-02-04 17:35:00,
2013-02-04 12:40:00,52.0,48.3,30.09,West,270,0.0,0.0,87,0.00,CLR,,0.00,WeatherDisplay:10.37,2013-02-04 17:40:00,
2013-02-04 12:45:00,52.0,48.3,30.09,West,270,0.0,0.0,87,0.00,CLR,,0.00,WeatherDisplay:10.37,2013-02-04 17:45:00,
2013-02-04 12:50:00,52.0,48.3,30.09,West,270,0.0,0.0,87,0.00,CLR,,0.00,WeatherDisplay:10.37,2013-02-04 17:50:00,
2013-02-04 12:55:00,52.0,48.3,30.09,West,270,0.0,0.0,87,0.00,CLR,,0.00,WeatherDisplay:10.37,2013-02-04 17:55:00,
2013-02-04 13:00:00,52.0,48.3,30.09,West,270,0.0,0.0,87,0.00,CLR,,0.00,WeatherDisplay:10.37,2013-02-04 18:00:00,
2013-02-04 13:05:00,52.0,48.3,30.09,West,270,0.0,0.0,87,0.00,CLR,,0.00,WeatherDisplay:10.37,2013-02-04 18:05:00,
2013-02-04 13:10:00,52.0,48.3,30.09,West,270,0.0,0.0,87,0.00,CLR,,0.00,WeatherDisplay:10.37,2013-02-04 18:10:00,
2013-02-04 13:15:00,52.0,48.3,30.09,West,270,0.0,0.0,87,0.00,CLR,,0.00,WeatherDisplay:10.37,2013-02-04 18:15:00,
2013-02-04 13:20:00,52.0,48.3,30.09,West,270,0.0,0.0,87,0.00,CLR,,0.00,WeatherDisplay:10.37,2013-02-04 18:20:00,
2013-02-04 13:25:00,52.0,48.3,30.09,West,270,0.0,0.0,87,0.00,CLR,,0.00,WeatherDisplay:10.37,2013-02-04 18:25:00,
2013-02-04 13:30:00,52.0,48.3,30.09,West,270,0.0,0.0,87,0.00,CLR,,0.00,WeatherDisplay:10.37,2013-02-04 18:30:00,
2013-02-04 13:35:00,52.0,48.3,30.09,West,270,0.0,0.0,87,0.00,CLR,,0.00,WeatherDisplay:10.37,2013-02-04 18:35:00,
2013-02-04 13:40:00,52.0,48.3,30.09,West,270,0.0,0.0,87,0.00,CLR,,0.00,WeatherDisplay:10.37,2013-02-04 18:40:00,
2013-02-04 13:45:00,52.0,48.3,30.09,West,270,0.0,0.0,87,0.00,CLR,,0.00,WeatherDisplay:10.37,2013-02-04 18:45:00,
2013-02-04 13:50:00,52.0,48.3,30.09,West,270,0.0,0.0,87,0.00,CLR,,0.00,WeatherDisplay:10.37,2013-02-04 18:50:00,
2013-02-04 13:55:00,52.0,48.3,30.09,West,270,0.0,0.0,87,0.00,CLR,,0.00,WeatherDisplay:10.37,2013-02-04 18:55:00,
2013-02-04 14:00:00,52.0,48.3,30.09,West,270,0.0,0.0,87,0.00,CLR,,0.00,WeatherDisplay:10.37,2013-02-04 19:00:00,
2013-02-04 14:05:00,52.0,48.3,30.09,West,270,0.0,0.0,87,0.00,CLR,,0.00,WeatherDisplay:10.37,2013-02-04 19:05:00,
2013-02-04 14:10:00,52.0,48.3,30.09,West,270,0.0,0.0,87,0.00,CLR,,0.00,WeatherDisplay:10.37,2013-02-04 19:10:00,
2013-02-04 14:15:00,52.0,48.3,30.09,West,270,0.0,0.0,87,0.00,CLR,,0.00,WeatherDisplay:10.37,2013-02-04 19:15:00,
2013-02-04 14:20:00,52.0,48.3,30.09,West,270,0.0,0.0,87,0.00,CLR,,0.00,WeatherDisplay:10.37,2013-02-04 19:20:00,
2013-02-04 14:25:00,52.0,48.3,30.09,West,270,0.0,0.0,87,0.00,CLR,,0.00,WeatherDisplay:10.37,2013-02-04 19:25:00,
2013-02-04 14:30:00,52.0,48.3,30.09,West,270,0.0,0.0,87,0.00,CLR,,0.00,WeatherDisplay:10.37,2013-02-04 19:30:00,
2013-02-04 14:35:00,52.0,48.3,30.09,West,270,0.0,0.0,87,0.00,CLR,,0.00,WeatherDisplay:10.37,2013-02-04 19:35:00,
2013-02-04 14:40:00,52.0,48.3,30.09,West,270,0.0,0.0,87,0.00,CLR,,0.00,WeatherDisplay:10.37,2013-02-04 19:40:00,
2013-02-04 14:45:00,52.0,48.3,30.09,West,270,0.0,0.0,87,0.00,CLR,,0.00,WeatherDisplay:10.37,2013-02-04 19:45:00,
2013-02-04 14:50:00,52.0,48.3,30.09,West,270,0.0,0.0,87,0.00,CLR,,0.00,WeatherDisplay:10.37,2013-02-04 19:50:00,
2013-02-04 14:55:00,52.0,48.3,30.09,West,270,0.0,0.0,87,0.00,CLR,,0.00,WeatherDisplay:10.37,2013-02-04 19:55:00,
2013-02-04 15:00:00,52.0,48.3,30.09,West,270,0.0,0.0,87,0.00,CLR,,0.00,WeatherDisplay:10.37,2013-02-04 20:00:00,
2013-02-04 15:05:00,52.0,48.3,30.09,West,270,0.0,0.0,87,0.00,CLR,,0.00,WeatherDisplay:10.37,2013-02-04 20:05:00,
2013-02-04 15:10:00,52.0,48.3,30.09,West,270,0.0,0.0,87,0.00,CLR,,0.00,WeatherDisplay:10.37,2013-02-04 20:10:00,
2013-02-04 15:15:00,52.0,48.3,30.09,West,270,0.0,0.0,87,0.00,CLR,,0.00,WeatherDisplay:10.37,2013-02-04 20:15:00,
2013-02-04 15:20:00,52.0,48.3,30.09,West,270,0.0,0.0,87,0.00,CLR,,0.00,WeatherDisplay:10.37,2013-02-04 20:20:00,
2013-02-04 15:25:00,52.0,48.3,30.09,West,270,0.0,0.0,87,0.00,CLR,,0.00,WeatherDisplay:10.37,2013-02-04 20:25:00,
2013-02-04 15:30:00,52.0,48.3,30.09,West,270,0.0,0.0,87,0.00,CLR,,0.00,WeatherDisplay:10.37,2013-02-04 20:30:00,
2013-02-04 15:35:00,52.0,48.3,30.09,West,270,0.0,0.0,87,0.00,CLR,,0.00,WeatherDisplay:10.37,2013-02-04 20:35:00,
2013-02-04 15:40:00,52.0,48.3,30.09,West,270,0.0,0.0,87,0.00,CLR,,0.00,WeatherDisplay:10.37,2013-02-04 20:40:00,
2013-02-04 15:45:00,52.0,48.3,30.09,West,270,0.0,0.0,87,0.00,CLR,,0.00,WeatherDisplay:10.37,2013-02-04 20:45:00,
2013-02-04 15:50:00,52.0,48.3,30.09,West,270,0.0,0.0,87,0.00,CLR,,0.00,WeatherDisplay:10.37,2013-02-04 20:50:00,
2013-02-04 15:55:00,52.0,48.3,30.09,West,270,0.0,0.0,87,0.00,CLR,,0.00,WeatherDisplay:10.37,2013-02-04 20:55:00,
2013-02-04 16:00:00,52.0,48.3,30.09,West,270,0.0,0.0,87,0.00,CLR,,0.00,WeatherDisplay:10.37,2013-02-04 21:00:00,
2013-02-04 16:05:00,52.0,48.3,30.09,West,270,0.0,0.0,87,0.00,CLR,,0.00,WeatherDisplay:10.37,2013-02-04 21:05:00,
2013-02-04 16:10:00,52.0,48.3,30.09,West,270,0.0,0.0,87,0.00,CLR,,0.00,WeatherDisplay:10.37,2013-02-04 21:10:00,
2013-02-04 16:15:00,52.0,48.3,30.09,West,270,0.0,0.0,87,0.00,CLR,,0.00,WeatherDisplay:10.37,2013-02-04 21:15:00,
2013-02-04 16:20:00,52.0,48.3,30.09,West,270,0.0,0.0,87,0.00,CLR,,0.00,WeatherDisplay:10.37,2013-02-04 21:20:00,
2013-02-04 16:25:00,52.0,48.3,30.09,West,270,0.0,0.0,87,0.00,CLR,,0.00,WeatherDisplay:10.37,2013-02-04 21:25:00,
2013-02-04 16:30:00,52.0,48.3,30.09,West,270,0.0,0.0,87,0.00,CLR,,0.00,WeatherDisplay:10.37,2013-02-04 21:30:00,
2013-02-04 16:35:00,52.0,48.3,30.09,West,270,0.0,0.0,87,0.00,CLR,,0.00,WeatherDisplay:10.37,2013-02-04 21:35:00,
2013-02-04 16:40:00,52.0,48.3,30.09,West,270,0.0,0.0,87,0.00,CLR,,0.00,WeatherDisplay:10.37,2013-02-04 21:40:00,
2013-02-04 16:45:00,52.0,48.3,30.09,West,270,0.0,0.0,87,0.00,CLR,,0.00,WeatherDisplay:10.37,2013-02-04 21:45:00,
2013-02-04 16:50:00,52.0,48.3,30.09,West,270,0.0,0.0,87,0.00,CLR,,0.00,WeatherDisplay:10.37,2013-02-04 21:50:00,
2013-02-04 16:55:00,52.0,48.3,30.09,West,270,0.0,0.0,87,0.00,CLR,,0.00,WeatherDisplay:10.37,2013-02-04 21:55:00,
2013-02-04 17:00:00,52.0,48.3,30.09,West,270,0.0,0.0,87,0.00,CLR,,0.00,WeatherDisplay:10.37,2013-02-04 22:00:00,
2013-02-04 17:05:00,52.0,48.3,30.09,West,270,0.0,0.0,87,0.00,CLR,,0.00,WeatherDisplay:10.37,2013-02-04 22:05:00,
2013-02-04 17:10:00,52.0,48.3,30.09,West,270,0.0,0.0,87,0.00,CLR,,0.00,WeatherDisplay:10.37,2013-02-04 22:10:00,
2013-02-04 17:15:00,52.0,48.3,30.09,West,270,0.0,0.0,87,0.00,CLR,,0.00,WeatherDisplay:10.37,2013-02-04 22:15:00,
2013-02-04 17:20:00,52.0,48.3,30.09,West,270,0.0,0.0,87,0.00,CLR,,0.00,WeatherDisplay:10.37,2013-02-04 22:20:00,
2013-02-04 17:25:00,52.0,48.3,30.09,West,270,0.0,0.0,87,0.00,CLR,,0.00,WeatherDisplay:10.37,2013-02-04 22:25:00,
2013-02-04 17:30:00,52.0,48.3,30.09,West,270,0.0,0.0,87,0.00,CLR,,0.00,WeatherDisplay:10.37,2013-02-04 22:30:00,
2013-02-04 17:35:00,52.0,48.3,30.09,West,270,0.0,0.0,87,0.00,CLR,,0.00,WeatherDisplay:10.37,2013-02-04 22:35:00,
2013-02-04 17:40:00,52.0,48.3,30.09,West,270,0.0,0.0,87,0.00,CLR,,0.00,WeatherDisplay:10.37,2013-02-04 22:40:00,
2013-02-04 17:45:00,52.0,48.3,30.09,West,270,0.0,0.0,87,0.00,CLR,,0.00,WeatherDisplay:10.37,2013-02-04 22:45:00,
2013-02-04 17:50:00,52.0,48.3,30.09,West,270,0.0,0.0,87,0.00,CLR,,0.00,WeatherDisplay:10.37,2013-02-04 22:50:00,
2013-02-04 17:55:00,52.0,48.3,30.09,West,270,0.0,0.0,87,0.00,CLR,,0.00,WeatherDisplay:10.37,2013-02-04 22:55:00,
2013-02-04 18:00:00,52.0,48.3,30.09,West,270,0.0,0.0,87,0.00,CLR,,0.00,WeatherDisplay:10.37,2013-02-04 23:00:00,
2013-02-04 18:05:00,52.0,48.3,30.09,West,270,0.0,0.0,87,0.00,CLR,,0.00,WeatherDisplay:10.37,2013-02-04 23:05:00,
2013-02-04 18:10:00,52.0,48.3,30.09,West,270,0.0,0.0,87,0.00,CLR,,0.00,WeatherDisplay:10.37,2013-02-04 23:10:00,
2013-02-04 18:15:00,52.0,48.3,30.09,West,270,0.0,0.0,87,0.00,CLR,,0.00,WeatherDisplay:10.37,2013-02-04 23:15:00,
2013-02-04 18:20:00,52.0,48.3,30.09,West,270,0.0,0.0,87,0.00,CLR,,0.00,WeatherDisplay:10.37,2013-02-04 23:20:00,
2013-02-04 18:25:00,52.0,48.3,30.09,West,270,0.0,0.0,87,0.00,CLR,,0.00,WeatherDisplay:10.37,2013-02-04 23:25:00,
2013-02-04 18:30:00,52.0,48.3,30.09,West,270,0.0,0.0,87,0.00,CLR,,0.00,WeatherDisplay:10.37,2013-02-04 23:30:00,
2013-02-04 18:35:00,52.0,48.3,30.09,West,270,0.0,0.0,87,0.00,CLR,,0.00,WeatherDisplay:10.37,2013-02-04 23:35:00,
2013-02-04 18:40:00,52.0,48.3,30.09,West,270,0.0,0.0,87,0.00,CLR,,0.00,WeatherDisplay:10.37,2013-02-04 23:40:00,
2013-02-04 18:45:00,52.0,48.3,30.09,West,270,0.0,0.0,87,0.00,CLR,,0.00,WeatherDisplay:10.37,2013-02-04 23:45:00,
2013-02-04 18:50:00,52.0,48.3,30.09,West,270,0.0,0.0,87,0.00,CLR,,0.00,WeatherDisplay:10.37,2013-02-04 23:50:00,
2013-02-04 18:55:00,52.0,48.3,30.09,West,270,0.0,0.0,87,0.00,CLR,,0.00,WeatherDisplay:10.37,2013-02-04 23:55:00,
2013-02-04 19:00:00,52.0,48.3,30.09,West,270,0.0,0.0,87,0.00,CLR,,0.00,WeatherDisplay:10.37,2013-02-05 00:00:00,
2013-02-04 19:05:00,52.0,48.3,30.09,West,270,0.0,0.0,87,0.00,CLR,,0.00,WeatherDisplay:10.37,2013-02-05 00:05:00,
2013-02-04 19:10:00,52.0,48.3,30.09,West,270,0.0,0.0,87,0.00,CLR,,0.00,WeatherDisplay:10.37,2013-02-05 00:10:00,
2013-02-04 19:15:00,52.0,48.3,30.09,West,270,0.0,0.0,87,0.00,CLR,,0.00,WeatherDisplay:10.37,2013-02-05 00:15:00,
2013-02-04 19:20:00,52.0,48.3,30.09,West,270,0.0,0.0,87,0.00,CLR,,0.00,WeatherDisplay:10.37,2013-02-05 00:20:00,
2013-02-04 19:25:00,52.0,48.3,30.09,West,270,0.0,0.0,87,0.00,CLR,,0.00,WeatherDisplay:10.37,2013-02-05 00:25:00,